G4RHR Weather Reports


time (UTC)temp
C
wind
direction
speed
KPH
gust
KPH
rain 1hr
cm
rain 24hr
cm
rain mn
cm
humidity
%
barometer
mb
20260506155401 12 72 8.0 16.1 0.00 0.05 0.05 79 1011.5
20260506154500 12 71 8.0 16.1 0.00 0.05 0.05 76 1011.4
20260506153601 12 57 4.8 14.5 0.00 0.05 0.05 76 1011.4
20260506152700 13 49 3.2 8.0 0.00 0.05 0.05 76 1011.4
20260506152014 13 45 3.2 9.7 0.00 0.05 0.05 76 1011.4
20260506150900 13 55 6.4 12.9 0.00 0.05 0.05 77 1011.4
20260506150005 13 53 6.4 12.9 0.00 0.05 0.05 77 1011.3
20260506145101 12 17 4.8 12.9 0.00 0.05 0.05 78 1011.4
20260506144413 12 3 4.8 9.7 0.00 0.05 0.05 79 1011.4
20260506143300 12 10 4.8 12.9 0.00 0.05 0.05 79 1011.3
20260506142401 11 15 6.4 14.5 0.00 0.05 0.05 80 1011.4
20260506141500 11 353 6.4 16.1 0.00 0.05 0.05 80 1011.5
20260506140812 11 360 8.0 19.3 0.00 0.05 0.05 81 1011.4
20260506135915 11 357 9.7 17.7 0.00 0.05 0.05 81 1011.4
20260506134800 11 25 8.0 17.7 0.00 0.05 0.05 83 1011.4
20260506134109 11 9 8.0 17.7 0.00 0.05 0.05 84 1011.5
20260506133001 11 25 6.4 16.1 0.00 0.05 0.05 85 1011.4
20260506132101 11 29 8.0 16.1 0.00 0.05 0.05 85 1011.4
20260506131201 11 22 8.0 17.7 0.00 0.05 0.05 83 1011.3
20260506130301 11 355 9.7 19.3 0.00 0.05 0.05 83 1011.3
20260506125403 11 357 8.0 17.7 0.00 0.05 0.05 83 1011.2
20260506124503 11 1 6.4 14.5 0.00 0.05 0.05 84 1011.2
20260506123601 11 357 6.4 14.5 0.03 0.05 0.05 86 1011.2
20260506122913 11 346 6.4 14.5 0.03 0.05 0.05 87 1011.2
20260506121800 11 3 6.4 14.5 0.03 0.05 0.05 87 1011.2
20260506120901 11 8 6.4 16.1 0.05 0.05 0.05 86 1011.2
20260506120000 11 8 6.4 16.1 0.05 0.05 0.05 88 1011.1
20260506115101 11 7 6.4 11.3 0.05 0.05 0.05 88 1011.0
20260506114200 11 32 6.4 12.9 0.05 0.05 0.05 87 1011.0
20260506113300 11 40 6.4 16.1 0.05 0.05 0.05 87 1011.0
20260506112401 11 56 8.0 17.7 0.05 0.05 0.05 86 1011.0
20260506111500 11 61 11.3 19.3 0.05 0.05 0.05 83 1011.0
20260506110600 12 37 8.0 19.3 0.03 0.03 0.03 82 1011.0
20260506105701 12 7 8.0 19.3 0.00 0.00 0.00 77 1010.9
20260506104800 12 341 9.7 20.9 0.00 0.00 0.00 73 1010.8
20260506103901 12 350 9.7 17.7 0.00 0.00 0.00 72 1010.8
20260506103213 12 354 9.7 20.9 0.00 0.00 0.00 72 1010.8
20260506102100 13 346 8.0 16.1 0.00 0.00 0.00 71 1010.7
20260506101413 13 337 8.0 17.7 0.00 0.00 0.00 71 1010.7
20260506100300 12 353 9.7 20.9 0.00 0.00 0.00 71 1010.7
20260506095613 12 353 9.7 19.3 0.00 0.00 0.00 72 1010.7
20260506094501 12 348 9.7 22.5 0.00 0.00 0.00 74 1010.7
20260506093603 12 355 11.3 24.1 0.00 0.00 0.00 73 1010.7
20260506092701 12 3 11.3 20.9 0.00 0.00 0.00 74 1010.6
20260506091800 12 352 11.3 19.3 0.00 0.00 0.00 73 1010.5
20260506090900 12 2 9.7 19.3 0.00 0.00 0.00 74 1010.5
20260506090000 12 358 6.4 17.7 0.00 0.00 0.00 77 1010.4
20260506085103 11 359 8.0 19.3 0.00 0.00 0.00 78 1010.5
20260506084200 11 356 11.3 20.9 0.00 0.00 0.00 79 1010.5
20260506083300 11 355 11.3 20.9 0.00 0.00 0.00 80 1010.4
20260506082611 11 351 11.3 20.9 0.00 0.00 0.00 80 1010.5
20260506081500 10 357 8.0 19.3 0.00 0.00 0.00 82 1010.4
20260506080601 10 354 9.7 19.3 0.00 0.00 0.00 82 1010.4
20260506073000 8 332 8.0 19.3 0.00 0.00 0.00 86 1010.3
20260506072100 8 341 9.7 22.5 0.00 0.00 0.00 87 1010.2
20260506071200 8 337 8.0 20.9 0.00 0.00 0.00 88 1010.2
20260506070300 7 352 4.8 14.5 0.00 0.00 0.00 89 1010.3
20260506061801 6 360 6.4 20.9 0.00 0.00 0.00 89 1010.2
20260506061111 6 360 6.4 17.7 0.00 0.00 0.00 89 1010.2
20260506050600 6 360 6.4 14.5 0.00 0.00 0.00 90 1010.2
20260506044800 6 360 3.2 12.9 0.00 0.00 0.00 89 1010.1
20260506043900 6 360 3.2 8.0 0.00 0.00 0.00 89 1010.2
20260506043000 6 360 4.8 12.9 0.00 0.00 0.00 89 1010.1
20260506042101 6 360 4.8 9.7 0.00 0.00 0.00 89 1010.1
20260506041201 6 360 4.8 12.9 0.00 0.00 0.00 89 1010.2
20260506040301 7 360 4.8 12.9 0.00 0.00 0.00 88 1010.1
20260506035400 7 360 4.8 9.7 0.00 0.00 0.00 88 1010.1
20260506034500 7 360 4.8 14.5 0.00 0.00 0.00 87 1010.2
20260506033600 7 360 4.8 16.1 0.00 0.00 0.00 87 1010.2
20260506032700 7 360 6.4 12.9 0.00 0.00 0.00 87 1010.4
20260506031801 7 360 6.4 14.5 0.00 0.00 0.00 87 1010.4
20260506030900 7 360 4.8 14.5 0.00 0.00 0.00 87 1010.4
20260506030001 7 360 4.8 12.9 0.00 0.00 0.00 87 1010.5
20260506025313 7 360 6.4 17.7 0.00 0.00 0.00 86 1010.6
20260506024415 8 360 6.4 16.1 0.00 0.00 0.00 86 1010.6
20260506023301 8 360 4.8 16.1 0.00 0.00 0.00 87 1010.7
20260506022400 8 360 6.4 17.7 0.00 0.00 0.00 87 1010.7
20260506021501 8 360 6.4 17.7 0.00 0.00 0.00 88 1010.8
20260506020601 8 360 6.4 16.1 0.00 0.00 0.00 89 1010.8
20260506015701 8 360 4.8 14.5 0.00 0.00 0.00 89 1010.8
20260506014800 8 360 3.2 9.7 0.00 0.00 0.00 89 1010.9
20260506013900 8 360 3.2 6.4 0.00 0.00 0.00 88 1010.8
20260506013214 8 360 3.2 9.7 0.00 0.00 0.00 88 1010.8
20260506012103 8 360 4.8 14.5 0.00 0.00 0.00 88 1010.9
20260506011200 8 360 6.4 16.1 0.00 0.00 0.00 89 1011.0
20260506010511 8 360 6.4 16.1 0.00 0.00 0.00 89 1011.0
20260506005614 8 360 6.4 12.9 0.00 0.00 0.00 89 1011.0
20260506004500 8 360 6.4 14.5 0.00 0.00 0.00 90 1011.1
20260506003603 8 360 6.4 12.9 0.00 0.00 0.00 89 1011.2
20260506002703 8 360 4.8 12.9 0.00 0.00 0.00 89 1011.2
20260506001801 8 360 4.8 14.5 0.00 0.00 0.00 89 1011.2
20260506000900 8 360 3.2 9.7 0.00 0.00 0.00 89 1011.3
20260506000212 8 351 4.8 11.3 0.00 0.00 0.00 88 1011.3
20260505235315 8 355 6.4 12.9 0.00 0.00 0.00 88 1011.2
20260505234200 8 351 6.4 12.9 0.00 0.00 0.00 88 1011.2
20260505233301 8 357 6.4 12.9 0.00 0.00 0.00 88 1011.2
20260505232617 8 360 6.4 12.9 0.00 0.00 0.00 88 1011.3
20260505231500 8 12 4.8 9.7 0.00 0.00 0.00 87 1011.4
20260505230600 8 10 4.8 12.9 0.00 0.00 0.00 87 1011.5
20260505225703 8 12 4.8 12.9 0.00 0.00 0.00 86 1011.5
20260505224801 9 17 4.8 12.9 0.00 0.00 0.00 86 1011.5
20260505224114 9 20 4.8 14.5 0.00 0.00 0.00 85 1011.5
20260505223001 9 12 3.2 11.3 0.00 0.00 0.00 85 1011.6
20260505222100 9 11 6.4 12.9 0.00 0.00 0.00 85 1011.6
20260505221201 9 8 6.4 14.5 0.00 0.00 0.00 84 1011.5
20260505220301 9 9 4.8 14.5 0.00 0.00 0.00 84 1011.4
20260505215400 10 6 4.8 11.3 0.00 0.00 0.00 84 1011.4
20260505214713 10 7 4.8 12.9 0.00 0.00 0.00 83 1011.4
20260505213600 10 17 4.8 12.9 0.00 0.00 0.00 83 1011.5
20260505212700 10 12 4.8 16.1 0.00 0.00 0.00 83 1011.5
20260505212010 10 7 4.8 12.9 0.00 0.00 0.00 83 1011.5
20260505210901 10 23 4.8 12.9 0.00 0.00 0.00 83 1011.5
20260505210001 10 19 4.8 12.9 0.00 0.00 0.00 83 1011.6
20260505205100 10 14 6.4 12.9 0.00 0.00 0.00 82 1011.5
20260505204201 10 15 4.8 11.3 0.00 0.00 0.00 82 1011.4
20260505203301 10 18 4.8 11.3 0.00 0.00 0.00 82 1011.4
20260505202400 10 32 6.4 16.1 0.00 0.00 0.00 81 1011.4
20260505201500 10 33 3.2 8.0 0.00 0.00 0.00 81 1011.4
20260505200601 11 37 4.8 8.0 0.00 0.00 0.00 80 1011.3
20260505195700 11 43 3.2 9.7 0.00 0.00 0.00 79 1011.2
20260505194801 11 43 3.2 6.4 0.00 0.00 0.00 78 1011.1
20260505193904 11 51 4.8 11.3 0.00 0.00 0.00 77 1011.0
20260505193003 11 50 4.8 14.5 0.00 0.00 0.00 76 1010.9
20260505192315 11 56 6.4 12.9 0.00 0.00 0.00 75 1010.8
20260505191413 11 61 6.4 12.9 0.00 0.00 0.00 74 1010.8
20260505190301 12 65 8.0 16.1 0.00 0.00 0.00 72 1010.7
20260505185612 12 65 6.4 14.5 0.00 0.00 0.00 71 1010.7
20260505184501 12 64 6.4 12.9 0.00 0.00 0.00 70 1010.7
20260505183603 12 63 6.4 14.5 0.00 0.00 0.00 69 1010.7
20260505182701 12 62 6.4 16.1 0.00 0.00 0.00 68 1010.6
20260505181800 13 63 8.0 16.1 0.00 0.00 0.00 67 1010.6
20260505180900 13 62 6.4 16.1 0.00 0.00 0.00 67 1010.6
20260505180000 13 56 6.4 16.1 0.00 0.00 0.00 68 1010.5
20260505175100 13 60 8.0 17.7 0.00 0.00 0.00 67 1010.6
20260505174201 13 64 8.0 19.3 0.00 0.00 0.00 66 1010.5
20260505173303 14 60 8.0 16.1 0.00 0.00 0.00 66 1010.6
20260505172404 14 57 9.7 17.7 0.00 0.00 0.00 64 1010.5
20260505171713 14 58 9.7 17.7 0.00 0.00 0.00 65 1010.6
20260505170600 14 68 9.7 17.7 0.00 0.00 0.00 65 1010.6
20260505165701 15 74 8.0 19.3 0.00 0.00 0.00 64 1010.5
20260505165015 14 74 8.0 20.9 0.00 0.00 0.00 64 1010.7
20260505163901 14 85 9.7 19.3 0.00 0.00 0.00 66 1010.7
20260505163001 14 81 8.0 17.7 0.00 0.00 0.00 68 1010.6
20260505162312 13 89 9.7 17.7 0.00 0.00 0.00 69 1010.6
20260505161200 14 95 6.4 17.7 0.00 0.00 0.00 66 1010.6
20260505160512 14 98 8.0 16.1 0.00 0.00 0.00 67 1010.6